Year,Month,Day,Hour,Minute,Value (Times are PST for temperature in C)
2015,06,17,07,11,13.20
2015,06,17,07,12,13.20
2015,06,17,07,13,13.20
2015,06,17,07,14,13.20
2015,06,17,07,15,13.30
2015,06,17,07,16,13.30
2015,06,17,07,17,13.30
2015,06,17,07,18,13.30
2015,06,17,07,19,13.30
2015,06,17,07,20,13.40
2015,06,17,07,21,13.40
2015,06,17,07,22,13.40
2015,06,17,07,23,13.40
2015,06,17,07,24,13.40
2015,06,17,07,25,13.50
2015,06,17,07,26,13.50
2015,06,17,07,27,13.50
2015,06,17,07,28,13.50
2015,06,17,07,29,13.60
2015,06,17,07,30,13.60
2015,06,17,07,31,13.60
2015,06,17,07,32,13.60
2015,06,17,07,33,13.60
2015,06,17,07,34,13.60
2015,06,17,07,35,13.60
2015,06,17,07,36,13.60
2015,06,17,07,37,13.70
2015,06,17,07,38,13.70
2015,06,17,07,39,13.70
2015,06,17,07,40,13.80
2015,06,17,07,41,13.90
2015,06,17,07,42,13.90
2015,06,17,07,43,14.00
2015,06,17,07,44,14.10
2015,06,17,07,45,14.10
2015,06,17,07,46,14.00
2015,06,17,07,47,14.00
2015,06,17,07,48,13.90
2015,06,17,07,49,13.90
2015,06,17,07,50,13.90
2015,06,17,07,51,13.90
2015,06,17,07,52,13.90
2015,06,17,07,53,13.90
2015,06,17,07,54,13.90
2015,06,17,07,55,13.90
2015,06,17,07,56,13.90
2015,06,17,07,57,13.90
2015,06,17,07,58,13.90
2015,06,17,07,59,13.90
2015,06,17,08,00,13.80
2015,06,17,08,01,13.80
2015,06,17,08,02,13.80
2015,06,17,08,03,13.90
2015,06,17,08,04,13.90
2015,06,17,08,05,14.00
2015,06,17,08,06,14.00
2015,06,17,08,07,14.10
2015,06,17,08,08,14.20
2015,06,17,08,09,14.20
2015,06,17,08,10,14.20
2015,06,17,08,11,14.30
2015,06,17,08,12,14.30
2015,06,17,08,13,14.40
2015,06,17,08,14,14.40
2015,06,17,08,15,14.40
2015,06,17,08,16,14.40
2015,06,17,08,17,14.50
2015,06,17,08,18,14.50
2015,06,17,08,19,14.50
2015,06,17,08,20,14.60
2015,06,17,08,21,14.60
2015,06,17,08,22,14.70
2015,06,17,08,23,14.80
2015,06,17,08,24,14.80
2015,06,17,08,25,14.80
2015,06,17,08,26,14.90
2015,06,17,08,27,14.90
2015,06,17,08,28,14.90
2015,06,17,08,29,14.90
2015,06,17,08,30,14.90
2015,06,17,08,31,14.90
2015,06,17,08,32,15.00
2015,06,17,08,33,15.00
2015,06,17,08,34,15.10
2015,06,17,08,35,15.10
2015,06,17,08,36,15.10
2015,06,17,08,37,15.20
2015,06,17,08,38,15.10
2015,06,17,08,39,15.10
2015,06,17,08,40,15.10
2015,06,17,08,41,15.10
2015,06,17,08,42,15.10
2015,06,17,08,43,15.10
2015,06,17,08,44,15.00
2015,06,17,08,45,15.10
2015,06,17,08,46,15.10
2015,06,17,08,47,15.10
2015,06,17,08,48,15.10
2015,06,17,08,49,15.20
2015,06,17,08,50,15.20
2015,06,17,08,51,15.20
2015,06,17,08,52,15.20
2015,06,17,08,53,15.20
2015,06,17,08,54,15.20
2015,06,17,08,55,15.10
2015,06,17,08,56,15.10
2015,06,17,08,57,15.10
2015,06,17,08,58,15.20
2015,06,17,08,59,15.20
2015,06,17,09,00,15.30
2015,06,17,09,01,15.30
2015,06,17,09,02,15.30
2015,06,17,09,03,15.30
2015,06,17,09,04,15.40
2015,06,17,09,05,15.40
2015,06,17,09,06,15.50
2015,06,17,09,07,15.60
2015,06,17,09,08,15.50
2015,06,17,09,09,15.50
2015,06,17,09,10,15.50
2015,06,17,09,11,15.40
2015,06,17,09,12,15.40
2015,06,17,09,13,15.40
2015,06,17,09,14,15.40
2015,06,17,09,15,15.40
2015,06,17,09,16,15.40
2015,06,17,09,17,15.40
2015,06,17,09,18,15.40
2015,06,17,09,19,15.30
2015,06,17,09,20,15.20
2015,06,17,09,21,15.10
2015,06,17,09,22,15.10
2015,06,17,09,23,15.20
2015,06,17,09,24,15.20
2015,06,17,09,25,15.30
2015,06,17,09,26,15.40
2015,06,17,09,27,15.40
2015,06,17,09,28,15.50
2015,06,17,09,29,15.60
2015,06,17,09,30,15.60
2015,06,17,09,31,15.80
2015,06,17,09,32,15.80
2015,06,17,09,33,15.90
2015,06,17,09,34,16.00
2015,06,17,09,35,16.10
2015,06,17,09,36,16.20
2015,06,17,09,37,16.30
2015,06,17,09,38,16.30
2015,06,17,09,39,16.30
2015,06,17,09,40,16.30
2015,06,17,09,41,16.30
2015,06,17,09,42,16.40
2015,06,17,09,43,16.40
2015,06,17,09,44,16.40
2015,06,17,09,45,16.40
2015,06,17,09,46,16.40
2015,06,17,09,47,16.40
2015,06,17,09,48,16.40
2015,06,17,09,49,16.50
2015,06,17,09,50,16.60
2015,06,17,09,51,16.60
2015,06,17,09,52,16.60
2015,06,17,09,53,16.70
2015,06,17,09,54,16.70
2015,06,17,09,55,16.80
2015,06,17,09,56,16.90
2015,06,17,09,57,16.90
2015,06,17,09,58,16.90
2015,06,17,09,59,17.00
2015,06,17,10,00,17.00
2015,06,17,10,01,17.00
2015,06,17,10,02,17.00
2015,06,17,10,03,17.00
2015,06,17,10,04,17.00
2015,06,17,10,05,17.10
2015,06,17,10,06,17.10
2015,06,17,10,07,17.20
2015,06,17,10,08,17.30
2015,06,17,10,09,17.30
2015,06,17,10,10,17.40
2015,06,17,10,11,17.50
2015,06,17,10,12,17.50
2015,06,17,10,13,17.50
2015,06,17,10,14,17.40
2015,06,17,10,15,17.40
2015,06,17,10,16,17.40
2015,06,17,10,17,17.30
2015,06,17,10,18,17.30
2015,06,17,10,19,17.30
2015,06,17,10,20,17.30
2015,06,17,10,21,17.20
2015,06,17,10,22,17.20
2015,06,17,10,23,17.20
2015,06,17,10,24,17.10
2015,06,17,10,25,17.20
2015,06,17,10,26,17.20
2015,06,17,10,27,17.30
2015,06,17,10,28,17.20
2015,06,17,10,29,17.20
2015,06,17,10,30,17.30
2015,06,17,10,31,17.30
2015,06,17,10,32,17.10
2015,06,17,10,33,17.00
2015,06,17,10,34,17.00
2015,06,17,10,35,17.00
2015,06,17,10,36,17.10
2015,06,17,10,37,17.20
2015,06,17,10,38,17.20
2015,06,17,10,39,17.10
2015,06,17,10,40,17.10
2015,06,17,10,41,17.00
2015,06,17,10,42,17.00
2015,06,17,10,43,17.10
2015,06,17,10,44,17.10
2015,06,17,10,45,17.30
2015,06,17,10,46,17.40
2015,06,17,10,47,17.50
2015,06,17,10,48,17.50
2015,06,17,10,49,17.60
2015,06,17,10,50,17.50
2015,06,17,10,51,17.50
2015,06,17,10,52,17.40
2015,06,17,10,53,17.40
2015,06,17,10,54,17.40
2015,06,17,10,55,17.30
2015,06,17,10,56,17.30
2015,06,17,10,57,17.10
2015,06,17,10,58,17.10
2015,06,17,10,59,17.10
2015,06,17,11,00,17.20
2015,06,17,11,01,17.20
2015,06,17,11,02,17.30
2015,06,17,11,03,17.30
2015,06,17,11,04,17.40
2015,06,17,11,05,17.50
2015,06,17,11,06,17.60
2015,06,17,11,07,17.70
2015,06,17,11,08,17.80
2015,06,17,11,09,17.90
2015,06,17,11,10,17.90
2015,06,17,11,11,17.90
2015,06,17,11,12,17.90
2015,06,17,11,13,17.90
2015,06,17,11,14,17.80
2015,06,17,11,15,17.60
2015,06,17,11,16,17.50
2015,06,17,11,17,17.50
2015,06,17,11,18,17.40
2015,06,17,11,19,17.30
2015,06,17,11,20,17.30
2015,06,17,11,21,17.30
2015,06,17,11,22,17.30
2015,06,17,11,23,17.30
2015,06,17,11,24,17.40
2015,06,17,11,25,17.50
2015,06,17,11,26,17.70
2015,06,17,11,27,17.80
2015,06,17,11,28,17.90
2015,06,17,11,29,18.00
2015,06,17,11,30,18.10
2015,06,17,11,31,18.20
2015,06,17,11,32,18.30
2015,06,17,11,33,18.30
2015,06,17,11,34,18.40
2015,06,17,11,35,18.40
2015,06,17,11,36,18.50
2015,06,17,11,37,18.50
2015,06,17,11,38,18.60
2015,06,17,11,39,18.50
2015,06,17,11,40,18.50
2015,06,17,11,41,18.40
2015,06,17,11,42,18.30
2015,06,17,11,43,18.20
2015,06,17,11,44,18.20
2015,06,17,11,45,18.30
2015,06,17,11,46,18.40
2015,06,17,11,47,18.50
2015,06,17,11,48,18.60
2015,06,17,11,49,18.60
2015,06,17,11,50,18.70
2015,06,17,11,51,18.80
2015,06,17,11,52,18.80
2015,06,17,11,53,18.80
2015,06,17,11,54,18.80
2015,06,17,11,55,18.70
2015,06,17,11,56,18.70
2015,06,17,11,57,18.70
2015,06,17,11,58,18.80
2015,06,17,11,59,18.80
2015,06,17,12,00,18.90
2015,06,17,12,01,18.90
2015,06,17,12,02,18.80
2015,06,17,12,03,18.80
2015,06,17,12,04,18.80
2015,06,17,12,05,18.80
2015,06,17,12,06,18.70
2015,06,17,12,07,18.70
2015,06,17,12,08,18.80
2015,06,17,12,09,18.80
2015,06,17,12,10,18.90
2015,06,17,12,11,18.90
2015,06,17,12,12,19.00
2015,06,17,12,13,19.10
2015,06,17,12,14,19.20
2015,06,17,12,15,19.40
2015,06,17,12,16,19.40
2015,06,17,12,17,19.60
2015,06,17,12,18,19.60
2015,06,17,12,19,19.60
2015,06,17,12,20,19.50
2015,06,17,12,21,19.40
2015,06,17,12,22,19.40
2015,06,17,12,23,19.50
2015,06,17,12,24,19.60
2015,06,17,12,25,19.60
2015,06,17,12,26,19.60
2015,06,17,12,27,19.70
2015,06,17,12,28,19.80
2015,06,17,12,29,19.80
2015,06,17,12,30,19.80
2015,06,17,12,31,19.90
2015,06,17,12,32,20.00
2015,06,17,12,33,20.10
2015,06,17,12,34,20.10
2015,06,17,12,35,20.10
2015,06,17,12,36,20.00
2015,06,17,12,37,20.00
2015,06,17,12,38,19.90
2015,06,17,12,39,19.90
2015,06,17,12,40,19.90
2015,06,17,12,41,19.90
2015,06,17,12,42,20.00
2015,06,17,12,43,20.10
2015,06,17,12,44,20.10
2015,06,17,12,45,20.10
2015,06,17,12,46,20.20
2015,06,17,12,47,20.10
2015,06,17,12,48,20.10
2015,06,17,12,49,20.10
2015,06,17,12,50,20.10
2015,06,17,12,51,20.10
2015,06,17,12,52,20.10
2015,06,17,12,53,20.10
2015,06,17,12,54,20.10
2015,06,17,12,55,20.20
2015,06,17,12,56,20.20
2015,06,17,12,57,20.20
2015,06,17,12,58,20.20
2015,06,17,12,59,20.10
2015,06,17,13,00,19.90
2015,06,17,13,01,19.90
2015,06,17,13,02,19.80
2015,06,17,13,03,19.70
2015,06,17,13,04,19.70
2015,06,17,13,05,19.70
2015,06,17,13,06,19.70
2015,06,17,13,07,19.80
2015,06,17,13,08,19.90
2015,06,17,13,09,19.80
2015,06,17,13,10,19.80
2015,06,17,13,11,19.70
2015,06,17,13,12,19.60
2015,06,17,13,13,19.60
2015,06,17,13,14,19.30
2015,06,17,13,15,19.00
2015,06,17,13,16,18.70
2015,06,17,13,17,18.40
2015,06,17,13,18,18.10
2015,06,17,13,19,17.80
2015,06,17,13,20,17.80
2015,06,17,13,21,17.70
2015,06,17,13,22,17.60
2015,06,17,13,23,17.50
2015,06,17,13,24,17.50
2015,06,17,13,25,17.40
2015,06,17,13,26,17.40
2015,06,17,13,27,17.40
2015,06,17,13,28,17.50
2015,06,17,13,29,17.50
2015,06,17,13,30,17.50
2015,06,17,13,31,17.70
2015,06,17,13,32,17.80
2015,06,17,13,33,17.90
2015,06,17,13,34,18.00
2015,06,17,13,35,18.10
2015,06,17,13,36,18.10
2015,06,17,13,37,18.20
2015,06,17,13,38,18.20
2015,06,17,13,39,18.30
2015,06,17,13,40,18.30
2015,06,17,13,41,18.20
2015,06,17,13,42,18.20
2015,06,17,13,43,18.20
2015,06,17,13,44,18.20
2015,06,17,13,45,18.20
2015,06,17,13,46,18.20
2015,06,17,13,47,18.00
2015,06,17,13,48,17.80
2015,06,17,13,49,17.70
2015,06,17,13,50,17.70
2015,06,17,13,51,17.70
2015,06,17,13,52,17.80
2015,06,17,13,53,17.90
2015,06,17,13,54,18.00
2015,06,17,13,55,18.10
2015,06,17,13,56,18.30
2015,06,17,13,57,18.40
2015,06,17,13,58,18.40
2015,06,17,13,59,18.20
2015,06,17,14,00,17.90
2015,06,17,14,01,17.70
2015,06,17,14,02,17.60
2015,06,17,14,03,17.60
2015,06,17,14,04,17.50
2015,06,17,14,05,17.50
2015,06,17,14,06,17.50
2015,06,17,14,07,17.50
2015,06,17,14,08,17.50
2015,06,17,14,09,17.50
2015,06,17,14,10,17.40
2015,06,17,14,11,17.30
2015,06,17,14,12,17.30
2015,06,17,14,13,17.30
2015,06,17,14,14,17.30
2015,06,17,14,15,17.30
2015,06,17,14,16,17.30
2015,06,17,14,17,17.30
2015,06,17,14,18,17.30
2015,06,17,14,19,17.40
2015,06,17,14,20,17.40
2015,06,17,14,21,17.40
2015,06,17,14,22,17.40
2015,06,17,14,23,17.40
2015,06,17,14,24,17.50
2015,06,17,14,25,17.50
2015,06,17,14,26,17.30
2015,06,17,14,27,17.30
2015,06,17,14,28,17.40
2015,06,17,14,29,17.40
2015,06,17,14,30,17.50
2015,06,17,14,31,17.40
2015,06,17,14,32,17.30
2015,06,17,14,33,17.30
2015,06,17,14,34,17.40
2015,06,17,14,35,17.50
2015,06,17,14,36,17.70
2015,06,17,14,37,17.70
2015,06,17,14,38,17.60
2015,06,17,14,39,17.50
2015,06,17,14,40,17.40
2015,06,17,14,41,17.30
2015,06,17,14,42,17.40
2015,06,17,14,43,17.50
2015,06,17,14,44,17.60
2015,06,17,14,45,17.70
2015,06,17,14,46,17.80
2015,06,17,14,47,17.80
2015,06,17,14,48,17.90
2015,06,17,14,49,17.90
2015,06,17,14,50,18.00
2015,06,17,14,51,18.10
2015,06,17,14,52,18.30
2015,06,17,14,53,18.40
2015,06,17,14,54,18.50
2015,06,17,14,55,18.50
2015,06,17,14,56,18.60
2015,06,17,14,57,18.70
2015,06,17,14,58,18.70
2015,06,17,14,59,18.60
2015,06,17,15,00,18.70
2015,06,17,15,01,18.70
2015,06,17,15,02,18.70
2015,06,17,15,03,18.80
2015,06,17,15,04,18.70
2015,06,17,15,05,18.70
2015,06,17,15,06,18.80
2015,06,17,15,07,18.90
2015,06,17,15,08,19.10
2015,06,17,15,09,19.30
2015,06,17,15,10,19.50
2015,06,17,15,11,19.60
2015,06,17,15,12,19.70
2015,06,17,15,13,19.60
2015,06,17,15,14,19.50
2015,06,17,15,15,19.40
2015,06,17,15,16,19.30
2015,06,17,15,17,19.20
2015,06,17,15,18,19.20
2015,06,17,15,19,19.20
2015,06,17,15,20,19.30
2015,06,17,15,21,19.30
2015,06,17,15,22,19.40
2015,06,17,15,23,19.50
2015,06,17,15,24,19.60
2015,06,17,15,25,19.60
2015,06,17,15,26,19.50
2015,06,17,15,27,19.40
2015,06,17,15,28,19.40
2015,06,17,15,29,19.50
2015,06,17,15,30,19.60
2015,06,17,15,31,19.70
2015,06,17,15,32,19.80
2015,06,17,15,33,19.70
2015,06,17,15,34,19.60
2015,06,17,15,35,19.60
2015,06,17,15,36,19.60
2015,06,17,15,37,19.60
2015,06,17,15,38,19.70
2015,06,17,15,39,19.70
2015,06,17,15,40,19.70
2015,06,17,15,41,19.60
2015,06,17,15,42,19.60
2015,06,17,15,43,19.70
2015,06,17,15,44,19.70
2015,06,17,15,45,19.80
2015,06,17,15,46,19.90
2015,06,17,15,47,19.90
2015,06,17,15,48,20.10
2015,06,17,15,49,20.10
2015,06,17,15,50,20.10
2015,06,17,15,51,20.10
2015,06,17,15,52,20.20
2015,06,17,15,53,20.20
2015,06,17,15,54,20.40
2015,06,17,15,55,20.40
2015,06,17,15,56,20.50
2015,06,17,15,57,20.70
2015,06,17,15,58,20.70
2015,06,17,15,59,20.80
2015,06,17,16,00,21.00
2015,06,17,16,01,21.00
2015,06,17,16,02,21.10
2015,06,17,16,03,21.10
2015,06,17,16,04,21.20
2015,06,17,16,05,21.20
2015,06,17,16,06,21.30
2015,06,17,16,07,21.30
2015,06,17,16,08,21.20
2015,06,17,16,09,21.20
2015,06,17,16,10,21.20
2015,06,17,16,11,21.20
2015,06,17,16,12,21.10
2015,06,17,16,13,21.00
2015,06,17,16,14,21.00
2015,06,17,16,15,20.80
2015,06,17,16,16,20.80
2015,06,17,16,17,20.70
2015,06,17,16,18,20.70
2015,06,17,16,19,20.70
2015,06,17,16,20,20.70
2015,06,17,16,21,20.60
2015,06,17,16,22,20.50
2015,06,17,16,23,20.40
2015,06,17,16,24,20.40
2015,06,17,16,25,20.50
2015,06,17,16,26,20.50
2015,06,17,16,27,20.60
2015,06,17,16,28,20.70
2015,06,17,16,29,20.80
2015,06,17,16,30,20.90
2015,06,17,16,31,20.90
2015,06,17,16,32,20.90
2015,06,17,16,33,21.00
2015,06,17,16,34,21.10
2015,06,17,16,35,21.10
2015,06,17,16,36,21.20
2015,06,17,16,37,21.30
2015,06,17,16,38,21.30
2015,06,17,16,39,21.30
2015,06,17,16,40,21.30
2015,06,17,16,41,21.30
2015,06,17,16,42,21.30
2015,06,17,16,43,21.30
2015,06,17,16,44,21.30
2015,06,17,16,45,21.30
2015,06,17,16,46,21.30
2015,06,17,16,47,21.40
2015,06,17,16,48,21.40
2015,06,17,16,49,21.60
2015,06,17,16,50,21.60
2015,06,17,16,51,21.60
2015,06,17,16,52,21.60
2015,06,17,16,53,21.60
2015,06,17,16,54,21.70
2015,06,17,16,55,21.70
2015,06,17,16,56,21.60
2015,06,17,16,57,21.60
2015,06,17,16,58,21.70
2015,06,17,16,59,21.70
2015,06,17,17,00,21.60
2015,06,17,17,01,21.60
2015,06,17,17,02,21.60
2015,06,17,17,03,21.60
2015,06,17,17,04,21.50
2015,06,17,17,05,21.40
2015,06,17,17,06,21.50
2015,06,17,17,07,21.60
2015,06,17,17,08,21.50
2015,06,17,17,09,21.30
2015,06,17,17,10,21.10
2015,06,17,17,11,21.10
2015,06,17,17,12,21.10
2015,06,17,17,13,21.20
2015,06,17,17,14,21.20
2015,06,17,17,15,21.20
2015,06,17,17,16,21.20
2015,06,17,17,17,21.20
2015,06,17,17,18,21.20
2015,06,17,17,19,21.10
2015,06,17,17,20,21.10
2015,06,17,17,21,21.00
2015,06,17,17,22,20.90
2015,06,17,17,23,20.90
2015,06,17,17,24,20.90
2015,06,17,17,25,20.90
2015,06,17,17,26,20.80
2015,06,17,17,27,20.80
2015,06,17,17,28,20.70
2015,06,17,17,29,20.70
2015,06,17,17,30,20.60
2015,06,17,17,31,20.40
2015,06,17,17,32,20.30
2015,06,17,17,33,20.30
2015,06,17,17,34,20.30
2015,06,17,17,35,20.30
2015,06,17,17,36,20.30
2015,06,17,17,37,20.30
2015,06,17,17,38,20.30
2015,06,17,17,39,20.20
2015,06,17,17,40,20.20
2015,06,17,17,41,20.20
2015,06,17,17,42,20.20
2015,06,17,17,43,20.30
2015,06,17,17,44,20.30
2015,06,17,17,45,20.30
2015,06,17,17,46,20.30
2015,06,17,17,47,20.30
2015,06,17,17,48,20.20
2015,06,17,17,49,20.20
2015,06,17,17,50,20.20
2015,06,17,17,51,20.20
2015,06,17,17,52,20.20
2015,06,17,17,53,20.20
2015,06,17,17,54,20.20
2015,06,17,17,55,20.10
2015,06,17,17,56,20.00
2015,06,17,17,57,19.90
2015,06,17,17,58,19.90
2015,06,17,17,59,19.80
2015,06,17,18,00,19.70
2015,06,17,18,01,19.70
2015,06,17,18,02,19.70
2015,06,17,18,03,19.70
2015,06,17,18,04,19.70
2015,06,17,18,05,19.70
2015,06,17,18,06,19.80
2015,06,17,18,07,19.80
2015,06,17,18,08,19.70
2015,06,17,18,09,19.70
2015,06,17,18,10,19.70
2015,06,17,18,11,19.70
2015,06,17,18,12,19.80
2015,06,17,18,13,19.80
2015,06,17,18,14,19.90
2015,06,17,18,15,19.90
2015,06,17,18,16,19.90
2015,06,17,18,17,20.10
2015,06,17,18,18,20.10
2015,06,17,18,19,20.00
2015,06,17,18,20,19.90
2015,06,17,18,21,19.90
2015,06,17,18,22,19.90
2015,06,17,18,23,19.90
2015,06,17,18,24,19.90
2015,06,17,18,25,19.80
2015,06,17,18,26,19.80
2015,06,17,18,27,19.80
2015,06,17,18,28,19.80
2015,06,17,18,29,19.70
2015,06,17,18,30,19.70
2015,06,17,18,31,19.70
2015,06,17,18,32,19.60
2015,06,17,18,33,19.60
2015,06,17,18,34,19.50
2015,06,17,18,35,19.50
2015,06,17,18,36,19.50
2015,06,17,18,37,19.60
2015,06,17,18,38,19.60
2015,06,17,18,39,19.60
2015,06,17,18,40,19.50
2015,06,17,18,41,19.50
2015,06,17,18,42,19.40
2015,06,17,18,43,19.40
2015,06,17,18,44,19.30
2015,06,17,18,45,19.20
2015,06,17,18,46,19.10
2015,06,17,18,47,19.10
2015,06,17,18,48,19.10
2015,06,17,18,49,19.00
2015,06,17,18,50,18.90
2015,06,17,18,51,18.90
2015,06,17,18,52,18.90
2015,06,17,18,53,18.90
2015,06,17,18,54,18.90
2015,06,17,18,55,18.90
2015,06,17,18,56,18.90
2015,06,17,18,57,18.80
2015,06,17,18,58,18.80
2015,06,17,18,59,18.70
2015,06,17,19,00,18.70
2015,06,17,19,01,18.70
2015,06,17,19,02,18.70
2015,06,17,19,03,18.70
2015,06,17,19,04,18.70
2015,06,17,19,05,18.70
2015,06,17,19,06,18.60
2015,06,17,19,07,18.60
2015,06,17,19,08,18.60
2015,06,17,19,09,18.60
2015,06,17,19,10,18.60
2015,06,17,19,11,18.60
2015,06,17,19,12,18.60
2015,06,17,19,13,18.60
2015,06,17,19,14,18.60
2015,06,17,19,15,18.70
2015,06,17,19,16,18.60
2015,06,17,19,17,18.50
2015,06,17,19,18,18.40
2015,06,17,19,19,18.40
2015,06,17,19,20,18.30
2015,06,17,19,21,18.30
2015,06,17,19,22,18.30
2015,06,17,19,23,18.30
2015,06,17,19,24,18.30
2015,06,17,19,25,18.30
2015,06,17,19,26,18.30
2015,06,17,19,27,18.20
2015,06,17,19,28,18.20
2015,06,17,19,29,18.10
2015,06,17,19,30,18.10
2015,06,17,19,31,18.00
2015,06,17,19,32,17.90
2015,06,17,19,33,17.90
2015,06,17,19,34,17.90
2015,06,17,19,35,17.90
2015,06,17,19,36,17.90
2015,06,17,19,37,17.90
2015,06,17,19,38,17.80
2015,06,17,19,39,17.80
2015,06,17,19,40,17.80
2015,06,17,19,41,17.70
2015,06,17,19,42,17.70
2015,06,17,19,43,17.70
2015,06,17,19,44,17.60
2015,06,17,19,45,17.60
2015,06,17,19,46,17.60
2015,06,17,19,47,17.60
2015,06,17,19,48,17.60
2015,06,17,19,49,17.60
2015,06,17,19,50,17.50
2015,06,17,19,51,17.50
2015,06,17,19,52,17.50
2015,06,17,19,53,17.50
2015,06,17,19,54,17.40
2015,06,17,19,55,17.30
2015,06,17,19,56,17.30
2015,06,17,19,57,17.30
2015,06,17,19,58,17.20
2015,06,17,19,59,17.20
2015,06,17,20,00,17.20
2015,06,17,20,01,17.20
2015,06,17,20,02,17.20
2015,06,17,20,03,17.20
2015,06,17,20,04,17.20
2015,06,17,20,05,17.10
2015,06,17,20,06,17.10
2015,06,17,20,07,17.10
2015,06,17,20,08,17.10
2015,06,17,20,09,17.00
2015,06,17,20,10,16.90
2015,06,17,20,11,16.90
2015,06,17,20,12,16.80
2015,06,17,20,13,16.80
2015,06,17,20,14,16.70
2015,06,17,20,15,16.70
2015,06,17,20,16,16.70
2015,06,17,20,17,16.60
2015,06,17,20,18,16.60
2015,06,17,20,19,16.50
2015,06,17,20,20,16.40
2015,06,17,20,21,16.40
2015,06,17,20,22,16.40
2015,06,17,20,23,16.30
2015,06,17,20,24,16.30
2015,06,17,20,25,16.30
2015,06,17,20,26,16.30
2015,06,17,20,27,16.20
2015,06,17,20,28,16.20
2015,06,17,20,29,16.20
2015,06,17,20,30,16.20
2015,06,17,20,31,16.10
2015,06,17,20,32,16.10
2015,06,17,20,33,16.10
2015,06,17,20,34,16.10
2015,06,17,20,35,16.10
2015,06,17,20,36,16.10
2015,06,17,20,37,16.10
2015,06,17,20,38,16.10
2015,06,17,20,39,16.00
2015,06,17,20,40,15.90
2015,06,17,20,41,15.90
2015,06,17,20,42,15.90
2015,06,17,20,43,15.90
2015,06,17,20,44,15.90
2015,06,17,20,45,15.90
2015,06,17,20,46,15.80
2015,06,17,20,47,15.80
2015,06,17,20,48,15.80
2015,06,17,20,49,15.80
2015,06,17,20,50,15.80
2015,06,17,20,51,15.80
2015,06,17,20,52,15.80
2015,06,17,20,53,15.80
2015,06,17,20,54,15.80
2015,06,17,20,55,15.80
2015,06,17,20,56,15.80
2015,06,17,20,57,15.80
2015,06,17,20,58,15.80
